Weather History for KIFA - March, 2013

Change the Weather History Date:

Saturday, March 16, 2013

  Actual Average Record
Temperature  
Mean Temperature 28 °F -  
Max Temperature 33 °F 43 °F 81 °F (2012)
Min Temperature 23 °F 25 °F -3 °F (1951)
Degree Days  
Heating Degree Days 37    
Moisture  
Dew Point 24 °F    
Average Humidity 80    
Maximum Humidity 96    
Minimum Humidity 68    
Precipitation  
Precipitation 0.00 in - - ()
Sea Level Pressure  
Sea Level Pressure 30.03 in    
Wind  
Wind Speed 14 mph (NNW)    
Max Wind Speed 25 mph    
Max Gust Speed 33 mph    
Visibility 8 miles    
Events      
Averages and records for this station are not official NWS values.
T = Trace of Precipitation, MM = Missing Value Source: NWS Daily Summary

Daily Weather History Graph

Daily Weather History Graph

Search for Another Location

Airport or City:

Trip Planner

Search our weather history database for the weather conditions in past years. The results will help you decide how hot, cold, wet, or windy it might be!

Date:

Astronomy

Mar. 16, 2013 Rise Set
Actual Time 7:22 AM CDT 7:21 PM CDT
Civil Twilight 6:54 AM CDT 7:49 PM CDT
Nautical Twilight 6:22 AM CDT 8:21 PM CDT
Astronomical Twilight 5:48 AM CDT 8:55 PM CDT
Moon 9:46 AM CDT (3/16) No Moon Set
Length of Visible Light 12h 54m
Length of Day
11h 58m
Waxing Crescent, 23% of the Moon is Illuminated
Mar 16
Waxing Crescent
Mar 19
First Quarter
Mar 27
Full
Apr 2
Last Quarter
Apr 10
New

Hourly Weather History & Observations

Time (CDT) Temp. Windchill Dew Point Humidity Pressure Visibility Wind Dir Wind Speed Gust Speed Precip Events Conditions
12:15 AM 33.8 °F 27.7 °F 31.6 °F 92% 29.80 in 5.0 mi North 6.9 mph - N/A   Overcast
12:35 AM 33.4 °F 25.9 °F 31.5 °F 92% 29.81 in 4.0 mi NNW 9.2 mph - N/A   Overcast
12:55 AM 33.4 °F 24.8 °F 31.6 °F 93% 29.82 in 3.0 mi NNW 11.5 mph - N/A   Overcast
1:15 AM 33.3 °F 25.7 °F 31.6 °F 94% 29.81 in 2.5 mi North 9.2 mph - N/A   Overcast
1:35 AM 33.3 °F 27.9 °F 31.8 °F 94% 29.81 in 2.0 mi North 5.8 mph - N/A   Overcast
1:55 AM 33.3 °F 27.1 °F 32.0 °F 95% 29.82 in 1.8 mi NNW 6.9 mph - N/A   Overcast
2:15 AM 33.3 °F 25.7 °F 32.0 °F 95% 29.81 in 1.2 mi NNW 9.2 mph - N/A   Overcast
2:35 AM 33.1 °F 26.9 °F 32.0 °F 96% 29.82 in 1.2 mi NW 6.9 mph - N/A   Overcast
2:55 AM 33.1 °F 24.9 °F 32.0 °F 96% 29.83 in 1.5 mi NW 10.4 mph - N/A   Overcast
3:15 AM 33.1 °F 23.9 °F 32.0 °F 96% 29.84 in 1.8 mi NW 12.7 mph - N/A   Overcast
3:55 AM 32.9 °F 22.8 °F 31.8 °F 96% 29.85 in 1.8 mi NW 15.0 mph - N/A   Overcast
4:15 AM 32.7 °F 22.1 °F 31.8 °F 96% 29.86 in 1.5 mi NW 16.1 mph - N/A   Overcast
4:55 AM 32.9 °F 22.4 °F 31.5 °F 94% 29.88 in 5.0 mi NW 16.1 mph - N/A   Overcast
5:15 AM 32.4 °F 21.3 °F 30.0 °F 91% 29.89 in 10.0 mi NW 17.3 mph 23.0 mph N/A   Overcast
5:35 AM 32.0 °F 20.1 °F 29.1 °F 89% 29.90 in 10.0 mi NW 19.6 mph - N/A   Overcast
5:55 AM 32.0 °F 19.5 °F 28.2 °F 86% 29.91 in 10.0 mi NNW 21.9 mph 27.6 mph N/A   Overcast
6:15 AM 32.0 °F 20.1 °F 27.5 °F 83% 29.93 in 10.0 mi NNW 19.6 mph 33.4 mph N/A   Overcast
6:35 AM 32.0 °F 20.1 °F 28.0 °F 85% 29.94 in 10.0 mi NW 19.6 mph 26.5 mph N/A   Overcast
6:55 AM 32.0 °F 19.5 °F 27.5 °F 83% 29.95 in 10.0 mi NNW 21.9 mph 26.5 mph N/A   Overcast
7:15 AM 31.8 °F 19.0 °F 27.1 °F 83% 29.97 in 10.0 mi NNW 23.0 mph 33.4 mph N/A   Overcast
7:35 AM 31.1 °F 17.7 °F 26.4 °F 83% 29.97 in 10.0 mi NNW 24.2 mph 31.1 mph N/A   Overcast
8:15 AM 29.8 °F 16.0 °F 25.7 °F 85% 30.00 in 10.0 mi NNW 24.2 mph 31.1 mph N/A   Overcast
8:35 AM 29.3 °F 15.6 °F 25.0 °F 84% 30.01 in 10.0 mi NNW 23.0 mph 32.2 mph N/A   Overcast
8:55 AM 29.1 °F 16.4 °F 24.8 °F 84% 30.03 in 10.0 mi NNW 19.6 mph 29.9 mph N/A   Overcast
9:15 AM 28.9 °F 15.1 °F 24.1 °F 82% 30.04 in 10.0 mi NNW 23.0 mph 27.6 mph N/A   Overcast
9:35 AM 28.4 °F 14.4 °F 23.0 °F 80% 30.04 in 10.0 mi NNW 23.0 mph 31.1 mph N/A   Overcast
9:55 AM 27.9 °F 14.7 °F 22.1 °F 79% 30.04 in 10.0 mi North 19.6 mph 28.8 mph N/A   Overcast
10:15 AM 27.3 °F 12.4 °F 21.9 °F 80% 30.05 in 10.0 mi NNW 25.3 mph - N/A   Overcast
10:35 AM 27.5 °F 13.9 °F 21.4 °F 78% 30.06 in 7.0 mi North 20.7 mph 29.9 mph N/A   Overcast
10:55 AM 27.5 °F 14.2 °F 21.2 °F 77% 30.07 in 10.0 mi NNW 19.6 mph 27.6 mph N/A   Overcast
11:15 AM 27.5 °F 14.2 °F 21.6 °F 78% 30.07 in 10.0 mi NNW 19.6 mph 25.3 mph N/A   Overcast
11:35 AM 28.4 °F 15.4 °F 20.8 °F 73% 30.08 in 10.0 mi NNW 19.6 mph - N/A   Mostly Cloudy
12:15 PM 28.9 °F 16.1 °F 21.2 °F 73% 30.09 in 10.0 mi NNW 19.6 mph 26.5 mph N/A   Mostly Cloudy
12:35 PM 29.7 °F 16.7 °F 21.7 °F 72% 30.09 in 10.0 mi North 20.7 mph 25.3 mph N/A   Scattered Clouds
12:55 PM 29.8 °F 17.7 °F 21.2 °F 70% 30.09 in 10.0 mi North 18.4 mph 26.5 mph N/A   Scattered Clouds
1:15 PM 29.7 °F 17.4 °F 22.3 °F 74% 30.09 in 10.0 mi NNW 18.4 mph 26.5 mph N/A   Mostly Cloudy
1:35 PM 29.5 °F 17.2 °F 21.0 °F 71% 30.10 in 10.0 mi North 18.4 mph 27.6 mph N/A   Scattered Clouds
1:55 PM 29.1 °F 17.5 °F 19.9 °F 69% 30.09 in 10.0 mi North 16.1 mph - N/A   Scattered Clouds
2:15 PM 29.8 °F 18.0 °F 21.7 °F 72% 30.09 in 10.0 mi North 17.3 mph 23.0 mph N/A   Mostly Cloudy
2:35 PM 29.7 °F 19.1 °F 20.1 °F 68% 30.09 in 10.0 mi North 13.8 mph 19.6 mph N/A   Scattered Clouds
2:55 PM 30.0 °F 18.3 °F 21.9 °F 72% 30.08 in 10.0 mi NNW 17.3 mph 23.0 mph N/A   Scattered Clouds
3:15 PM 30.0 °F 19.1 °F 21.0 °F 69% 30.08 in 10.0 mi North 15.0 mph 20.7 mph N/A   Mostly Cloudy
3:35 PM 29.8 °F 18.9 °F 21.0 °F 70% 30.08 in 10.0 mi North 15.0 mph 19.6 mph N/A   Mostly Cloudy
3:55 PM 28.9 °F 18.2 °F 20.5 °F 71% 30.08 in 10.0 mi North 13.8 mph 20.7 mph N/A   Mostly Cloudy
4:15 PM 29.1 °F 18.9 °F 20.7 °F 71% 30.08 in 10.0 mi NNW 12.7 mph - N/A   Mostly Cloudy
4:35 PM 29.1 °F 17.9 °F 21.0 °F 72% 30.08 in 10.0 mi NNW 15.0 mph 19.6 mph N/A   Mostly Cloudy
5:15 PM 28.2 °F 18.3 °F 20.5 °F 73% 30.09 in 10.0 mi North 11.5 mph - N/A   Overcast
5:35 PM 28.2 °F 17.7 °F 20.3 °F 72% 30.09 in 10.0 mi NNW 12.7 mph 18.4 mph N/A   Overcast
5:55 PM 28.2 °F 18.3 °F 20.5 °F 73% 30.09 in 10.0 mi NNW 11.5 mph 19.6 mph N/A   Overcast
6:15 PM 27.9 °F 17.8 °F 20.7 °F 74% 30.10 in 10.0 mi NNW 11.5 mph - N/A   Overcast
6:35 PM 27.0 °F 18.0 °F 20.1 °F 75% 30.10 in 10.0 mi North 9.2 mph - N/A   Overcast
6:55 PM 26.6 °F 15.7 °F 19.4 °F 74% 30.11 in 10.0 mi NNW 12.7 mph - N/A   Overcast
7:15 PM 26.2 °F 17.1 °F 19.2 °F 75% 30.12 in 10.0 mi North 9.2 mph - N/A   Overcast
7:35 PM 26.2 °F 16.4 °F 18.7 °F 73% 30.13 in 10.0 mi NNW 10.4 mph - N/A   Overcast
7:55 PM 26.2 °F 16.4 °F 19.4 °F 75% 30.12 in 10.0 mi North 10.4 mph - N/A   Overcast
8:35 PM 25.5 °F 14.9 °F 18.5 °F 75% 30.15 in 10.0 mi NNW 11.5 mph - N/A   Scattered Clouds
8:55 PM 25.3 °F 15.3 °F 18.3 °F 75% 30.16 in 10.0 mi North 10.4 mph - N/A   Scattered Clouds
9:35 PM 25.2 °F 14.4 °F 18.5 °F 76% 30.16 in 10.0 mi NNW 11.5 mph - N/A   Clear
9:55 PM 25.2 °F 14.4 °F 18.5 °F 76% 30.17 in 10.0 mi NNW 11.5 mph - N/A   Scattered Clouds
10:15 PM 24.8 °F 14.0 °F 17.8 °F 75% 30.18 in 10.0 mi North 11.5 mph - N/A   Scattered Clouds
10:35 PM 24.6 °F 13.2 °F 18.1 °F 76% 30.19 in 10.0 mi NNW 12.7 mph - N/A   Scattered Clouds
10:55 PM 24.4 °F 13.5 °F 18.1 °F 77% 30.19 in 10.0 mi North 11.5 mph - N/A   Scattered Clouds
11:15 PM 24.1 °F 12.5 °F 17.4 °F 76% 30.20 in 10.0 mi NNW 12.7 mph - N/A   Clear
11:35 PM 23.9 °F 13.5 °F 17.6 °F 77% 30.20 in 10.0 mi NNW 10.4 mph - N/A   Clear
11:55 PM 23.4 °F 12.2 °F 17.2 °F 77% 30.20 in 10.0 mi NNW 11.5 mph - N/A   Clear